• In Belgium
  • List of Countries
  • For 7 days
  • Water Temperature
  • Satellite Maps
  • Weather Map
  • Weather Widgets
  • user-avatar
    Login

    Hourly Weather Dinant

    Today, 19 January, Friday

    Time Temperature Precipitation Wind Pressure Humidity
    00:00 +1°C° 0 mm 4 mps 739 mmHg 85%
    01:00 +1°C° 0 mm 4 mps 740 mmHg 86%
    02:00 0°C° 0 mm 5 mps 740 mmHg 87%
    03:00 0°C° 0 mm 5 mps 740 mmHg 88%
    04:00 0°C° 0 mm 4 mps 741 mmHg 89%
    05:00 0°C° 0 mm 4 mps 741 mmHg 89%
    06:00 0°C° 0 mm 3 mps 742 mmHg 91%
    07:00 -1°C° 0 mm 4 mps 742 mmHg 91%
    08:00 0°C° 0 mm 4 mps 742 mmHg 91%
    09:00 0°C° 0 mm 4 mps 743 mmHg 90%
    10:00 +1°C° 0 mm 4 mps 743 mmHg 87%
    11:00 +3°C° 0 mm 4 mps 743 mmHg 83%
    12:00 +4°C° 0 mm 4 mps 743 mmHg 80%
    13:00 +4°C° 0.2 mm 4 mps 743 mmHg 79%
    14:00 +4°C° 0.2 mm 4 mps 743 mmHg 79%
    15:00 +4°C° 0.2 mm 4 mps 743 mmHg 79%
    16:00 +3°C° 0.1 mm 4 mps 743 mmHg 82%
    17:00 +2°C° 0.1 mm 3 mps 743 mmHg 84%
    18:00 +1°C° 0.1 mm 3 mps 743 mmHg 87%
    19:00 0°C° 0 mm 4 mps 743 mmHg 87%
    20:00 0°C° 0 mm 4 mps 743 mmHg 88%
    21:00 0°C° 0 mm 4 mps 743 mmHg 89%
    22:00 0°C° 0.2 mm 4 mps 743 mmHg 89%
    23:00 0°C° 0.2 mm 5 mps 743 mmHg 90%

    Tomorrow, 20 January, Saturday

    Time Temperature Precipitation Wind Pressure Humidity
    00:00 0°C° 0.2 mm 5 mps 743 mmHg 90%
    01:00 0°C° 0.1 mm 4 mps 743 mmHg 91%
    02:00 0°C° 0.1 mm 4 mps 743 mmHg 92%
    03:00 0°C° 0.1 mm 4 mps 743 mmHg 93%
    04:00 0°C° 0 mm 4 mps 742 mmHg 94%
    05:00 0°C° 0 mm 4 mps 742 mmHg 94%
    06:00 +1°C° 0 mm 3 mps 742 mmHg 94%
    07:00 +1°C° 0.2 mm 3 mps 741 mmHg 94%
    08:00 +1°C° 0.2 mm 3 mps 741 mmHg 94%
    09:00 +2°C° 0.2 mm 3 mps 740 mmHg 93%
    10:00 +2°C° 0.9 mm 3 mps 739 mmHg 93%
    11:00 +2°C° 0.9 mm 3 mps 738 mmHg 93%
    12:00 +3°C° 0.9 mm 3 mps 737 mmHg 92%
    13:00 +4°C° 0.8 mm 2 mps 737 mmHg 93%
    14:00 +3°C° 0.8 mm 2 mps 736 mmHg 94%
    15:00 +4°C° 0.8 mm 1 mps 736 mmHg 95%
    16:00 +4°C° 0.1 mm 1 mps 737 mmHg 95%
    17:00 +4°C° 0.1 mm 1 mps 737 mmHg 96%
    18:00 +3°C° 0.1 mm 2 mps 738 mmHg 96%
    19:00 +4°C° 0 mm 1 mps 738 mmHg 96%
    20:00 +4°C° 0 mm 1 mps 739 mmHg 96%
    21:00 +3°C° 0 mm 1 mps 740 mmHg 96%
    22:00 +3°C° 0.2 mm 1 mps 740 mmHg 96%
    23:00 +3°C° 0.2 mm 1 mps 741 mmHg 96%

    Day after tomorrow, 21 January, Sunday

    Time Temperature Precipitation Wind Pressure Humidity
    00:00 +3°C° 0.2 mm 1 mps 741 mmHg 96%
    01:00 +2°C° 0 mm 1 mps 742 mmHg 96%
    02:00 +2°C° 0 mm 1 mps 743 mmHg 95%
    03:00 +1°C° 0 mm 1 mps 743 mmHg 95%
    04:00 +1°C° 0 mm 1 mps 743 mmHg 94%
    05:00 +1°C° 0 mm 1 mps 744 mmHg 94%
    06:00 +1°C° 0 mm 1 mps 744 mmHg 93%
    07:00 +2°C° 0.1 mm 1 mps 744 mmHg 92%
    08:00 +2°C° 0.1 mm 1 mps 745 mmHg 90%
    09:00 +2°C° 0.1 mm 2 mps 745 mmHg 88%
    10:00 +2°C° 0.7 mm 2 mps 745 mmHg 89%
    11:00 +1°C° 0.7 mm 3 mps 744 mmHg 89%
    12:00 +1°C° 0.7 mm 3 mps 744 mmHg 90%
    13:00 +1°C° 0.7 mm 4 mps 744 mmHg 91%
    14:00 +1°C° 0.7 mm 4 mps 743 mmHg 92%
    15:00 +1°C° 0.7 mm 4 mps 743 mmHg 93%
    16:00 +1°C° 1.2 mm 4 mps 743 mmHg 94%
    17:00 +2°C° 1.2 mm 3 mps 743 mmHg 95%
    18:00 +2°C° 1.2 mm 3 mps 743 mmHg 96%
    19:00 +3°C° 0.8 mm 3 mps 743 mmHg 97%
    20:00 +4°C° 0.8 mm 3 mps 743 mmHg 97%
    21:00 +5°C° 0.8 mm 3 mps 743 mmHg 98%
    22:00 +5°C° 1.4 mm 4 mps 743 mmHg 98%
    23:00 +6°C° 1.4 mm 4 mps 743 mmHg 98%

    22 January, Monday

    Time Temperature Precipitation Wind Pressure Humidity
    00:00 +7°C° 1.4 mm 4 mps 743 mmHg 98%
    01:00 +8°C° 1.2 mm 5 mps 742 mmHg 97%
    02:00 +8°C° 1.2 mm 5 mps 742 mmHg 97%
    03:00 +9°C° 1.2 mm 5 mps 742 mmHg 96%
    04:00 +9°C° 1.1 mm 6 mps 742 mmHg 96%
    05:00 +9°C° 1.1 mm 6 mps 742 mmHg 96%
    06:00 +9°C° 1.1 mm 6 mps 742 mmHg 95%
    07:00 +10°C° 1.6 mm 6 mps 742 mmHg 95%
    08:00 +10°C° 1.6 mm 6 mps 742 mmHg 95%
    09:00 +10°C° 1.6 mm 6 mps 742 mmHg 95%
    10:00 +10°C° 0.4 mm 6 mps 742 mmHg 94%
    11:00 +10°C° 0.4 mm 6 mps 742 mmHg 93%
    12:00 +10°C° 0.4 mm 7 mps 742 mmHg 92%
    13:00 +10°C° 1.1 mm 7 mps 742 mmHg 92%
    14:00 +10°C° 1.1 mm 6 mps 742 mmHg 93%
    15:00 +10°C° 1.1 mm 6 mps 742 mmHg 94%
    16:00 +9°C° 0.6 mm 6 mps 743 mmHg 94%
    17:00 +9°C° 0.6 mm 5 mps 744 mmHg 95%
    18:00 +9°C° 0.6 mm 5 mps 744 mmHg 96%
    19:00 +8°C° 0.1 mm 4 mps 745 mmHg 96%
    20:00 +9°C° 0.1 mm 3 mps 746 mmHg 96%
    21:00 +9°C° 0.1 mm 3 mps 747 mmHg 97%
    22:00 +8°C° 0 mm 2 mps 748 mmHg 97%
    23:00 +7°C° 0 mm 2 mps 748 mmHg 97%

    23 January, Tuesday

    Time Temperature Precipitation Wind Pressure Humidity
    00:00 +7°C° 0 mm 2 mps 749 mmHg 97%
    01:00 +7°C° 0 mm 2 mps 749 mmHg 97%
    02:00 +7°C° 0 mm 2 mps 750 mmHg 97%
    03:00 +7°C° 0 mm 2 mps 750 mmHg 97%
    04:00 +7°C° 0.1 mm 3 mps 750 mmHg 96%
    05:00 +7°C° 0.1 mm 3 mps 751 mmHg 96%
    06:00 +7°C° 0.1 mm 3 mps 751 mmHg 95%
    07:00 +6°C° 0 mm 4 mps 751 mmHg 94%
    08:00 +6°C° 0 mm 4 mps 752 mmHg 94%
    09:00 +6°C° 0 mm 4 mps 752 mmHg 93%
    10:00 +7°C° 0 mm 4 mps 752 mmHg 91%
    11:00 +8°C° 0 mm 5 mps 753 mmHg 88%
    12:00 +8°C° 0 mm 5 mps 753 mmHg 86%
    13:00 +8°C° 0 mm 5 mps 753 mmHg 87%
    14:00 +8°C° 0 mm 5 mps 753 mmHg 87%
    15:00 +8°C° 0 mm 5 mps 753 mmHg 88%
    16:00 +8°C° 0 mm 5 mps 753 mmHg 90%
    17:00 +8°C° 0 mm 5 mps 753 mmHg 91%
    18:00 +7°C° 0 mm 4 mps 753 mmHg 93%
    19:00 +8°C° 0 mm 4 mps 753 mmHg 94%
    20:00 +8°C° 0 mm 4 mps 753 mmHg 95%
    21:00 +8°C° 0 mm 4 mps 753 mmHg 95%
    22:00 +8°C° 0 mm 4 mps 753 mmHg 96%
    23:00 +8°C° 0 mm 4 mps 753 mmHg 96%

    24 January, Wednesday

    Time Temperature Precipitation Wind Pressure Humidity
    00:00 +8°C° 0 mm 4 mps 753 mmHg 96%
    01:00 +8°C° 0 mm 5 mps 753 mmHg 96%
    02:00 +8°C° 0 mm 5 mps 753 mmHg 96%
    03:00 +9°C° 0 mm 5 mps 753 mmHg 95%
    04:00 +9°C° 0 mm 5 mps 752 mmHg 95%
    05:00 +9°C° 0 mm 5 mps 752 mmHg 94%
    06:00 +9°C° 0 mm 5 mps 752 mmHg 94%
    07:00 +9°C° 0 mm 5 mps 752 mmHg 93%
    08:00 +10°C° 0 mm 6 mps 752 mmHg 93%
    09:00 +10°C° 0 mm 6 mps 752 mmHg 92%
    10:00 +10°C° 0 mm 6 mps 752 mmHg 89%
    11:00 +10°C° 0 mm 7 mps 752 mmHg 86%
    12:00 +11°C° 0 mm 7 mps 751 mmHg 83%
    13:00 +11°C° 0 mm 7 mps 751 mmHg 83%
    14:00 +11°C° 0 mm 6 mps 751 mmHg 83%
    15:00 +11°C° 0 mm 6 mps 750 mmHg 83%
    16:00 +10°C° 0 mm 6 mps 750 mmHg 85%
    17:00 +10°C° 0 mm 6 mps 750 mmHg 87%
    18:00 +10°C° 0 mm 5 mps 749 mmHg 89%
    19:00 +9°C° 0 mm 6 mps 749 mmHg 89%
    20:00 +9°C° 0 mm 6 mps 749 mmHg 89%
    21:00 +9°C° 0 mm 6 mps 749 mmHg 89%
    22:00 +9°C° 0 mm 6 mps 748 mmHg 89%
    23:00 +9°C° 0 mm 6 mps 748 mmHg 88%
    Show more